www.pogodaiklimat.ru

Погода и климат >> Архив погоды >> Россия >> Якутия >> Сеген-Кюель


АРХИВ ПОГОДЫ в Сеген-Кюеле

Время (UTC), дата Ветер
(напр.,м/с)
 
Видим.   Явления Облачность Т
(С)
Тd
(С)
f
(%)
Тe
(С)
Тes
(С)
Комфортность P
(гПа)
Po
(гПа)
Тmin
(С)
Tmax
(С)
R
(мм)
R24
(мм)
S
(см)
12 12.08 Ю 1 50 км {гроза, ливн. осадки} 3/1 1000 м
[Sc Ac trans Ci fib]
+12.9 +11.4 91 +13 +13 1007.9 983.2 +23.5 0.4
15 12.08 З 1 50 км 1/0
[Ac trans]
+9.6 +9.0 96 +9 +9 1008.7 983.7
18 12.08 штиль 0 50 км 3/0
[Ci fib]
+8.6 +7.3 92 +8 +8 1009.1 984.0
21 12.08 штиль 0 50 км ясно +10.5 +8.3 86 +10 +11 1009.2 984.3
00 13.08 С 3 50 км ясно +19.0 +9.1 53 +20 +24 1008.3 984.1 +8.4
03 13.08 СВ 1 50 км 1/1 1000 м
[Cu med, cong]
+24.3 +9.2 38 +25 +35 комфорт 1007.2 983.5
06 13.08 Ю 2 50 км 3/3 1000 м
[Cb calv]
+26.3 +9.0 34 +27 +31 жарко 1006.6 983.0
09 13.08 Ю 1 50 км гроза без осадков 9/4 600 м
[Cb cap Ci fib]
+26.0 +8.8 34 +26 +27 жарко 1006.6 983.0
12 13.08 СЗ 1 50 км {гроза, ливн. осадки} 10/8 1000 м
[Cb cap Ac trans Ci fib]
+15.6 +13.1 85 +16 +16 1009.1 984.6 +27.6 1
15 13.08 штиль 0 50 км 4/0
[Ac trans Ci fib]
+11.7 +10.9 95 +11 +11 1009.6 984.8
18 13.08 З 1 50 км 4/0
[Ci fib]
+7.3 +6.9 97 +6 +6 1010.9 985.8
21 13.08 штиль 0 20 км дым ясно +8.6 +7.5 93 +8 +9 1011.2 986.1
00 14.08 СВ 2 20 км дым ясно +19.5 +9.8 53 +21 +26 комфорт 1010.1 986.0 +6.4
03 14.08 В 1 20 км дым 1/1 1000 м
[Cu hum]
+24.0 +9.1 39 +25 +34 комфорт 1009.4 985.6
06 14.08 ЮВ 2 50 км 8/1 1000 м
[Cu med, cong Ci fib]
+26.2 +7.7 31 +26 +31 жарко 1008.3 984.7
09 14.08 ЮВ 1 50 км 8/3 1000 м
[Cb cap Ci fib]
+25.6 +7.0 31 +26 +26 жарко 1008.0 984.4
12 14.08 С 1 50 км 3/1 1000 м
[Sc Ci fib]
+19.0 +9.8 55 +21 +21 комфорт 1009.3 985.1 +27.0
15 14.08 С 1 50 км 3/0
[Ac trans Ci fib]
+11.2 +7.7 79 +11 +11 1010.6 985.7
18 14.08 С 1 50 км 1/1 1000 м
[Sc]
+10.1 +8.0 87 +10 +10 1011.5 986.5
21 14.08 СЗ 1 50 км 6/0
[Ci fib]
+10.6 +7.9 83 +10 +11 1012.1 987.2
00 15.08 С 1 50 км 9/0
[Ci fib]
+18.5 +8.0 50 +20 +25 1011.4 987.2 +8.6
03 15.08 СВ 1 50 км 10/1 1000 м
[Cu med, cong Ci fib]
+25.0 +7.2 32 +25 +32 комфорт 1010.5 986.8
06 15.08 ЮВ 2 50 км 6/5 600 м
[Cb cap Ci fib]
+25.0 +6.9 31 +25 +28 комфорт 1009.6 985.9
09 15.08 В 1 50 км 10/5 1000 м
[Cb cap Ci fib]
+24.6 +5.6 29 +24 +25 комфорт 1010.2 986.5
12 15.08 штиль 0 50 км 4/3 1000 м
[Sc Ac trans Ci fib]
+17.0 +10.2 64 +17 +17 1012.2 987.7 +27.5
15 15.08 С 1 50 км 8/4 1000 м
[Sc Ac trans]
+13.3 +9.2 76 +14 +14 1013.3 988.5
18 15.08 штиль 0 50 км 9/9 1000 м
[Cb cap]
+11.2 +8.8 85 +11 +11 1015.1 990.1
21 15.08 С 1 50 км {ливн. осадки} 10/5 1000 м
[Cb cap Cs]
+14.6 +9.4 71 +15 +15 1014.6 989.9
00 16.08 СВ 1 20 км {ливн. осадки} 10/0
[Ac trans Ci fib]
+21.0 +9.9 49 +24 +28 комфорт 1014.3 990.1 +10.4 0.3
03 16.08 ЮВ 4 20 км дым 8/1
[Cu med, cong Ci fib]
+25.2 +8.6 35 +26 +30 жарко 1013.5 989.7
06 16.08 ЮВ 5 50 км 10/5 1000 м
[Cb cap Ac trans Ci sp]
+25.0 +8.0 34 +25 +26 комфорт 1013.3 989.5
09 16.08 штиль 0 50 км 10/8 1000 м
[Cb cap As op]
+16.5 +11.1 70 +16 +17 1016.9 992.4
12 16.08 С 1 20 км слаб. ливневой дождь 10/9 1000 м
[Cb cap As op]
+13.5 +13.0 97 +14 +14 1017.2 992.4 +26.3 2
15 16.08 СВ 1 50 км {ливн. осадки} 10/3 1000 м
[Cb cap As op]
+15.4 +10.9 75 +16 +16 1016.6 992.0
18 16.08 С 1 50 км {ливн. осадки} 10/9 1000 м
[Cb cap As op]
+14.0 +11.4 84 +14 +14 1017.4 992.7
21 16.08 В 1 50 км 10/9 1000 м
[Cb cap As op]
+14.6 +12.4 87 +15 +15 1017.3 992.5
00 17.08 СВ 1 50 км 10/8 1000 м
[Cb cap As op]
+14.8 +13.0 89 +15 +15 1017.5 992.7 +13.5 0.5
03 17.08 СВ 1 20 км слаб. ливневой дождь 10/9 600 м
[Cb cap As op]
+15.2 +14.1 93 +16 +16 1017.6 992.9
06 17.08 С 2 50 км {ливн. осадки} 10/8 1000 м
[Cb cap Ac trans Ci fib]
+16.8 +14.7 87 +17 +18 1016.3 991.9
09 17.08 СВ 1 50 км 10/8 1000 м
[Cb cap Ac trans Ci fib]
+17.4 +14.3 82 +18 +19 1015.6 991.2
12 17.08 СВ 1 50 км 10/8 1000 м
[Cb cap Ac trans Ci fib]
+16.6 +13.2 80 +17 +17 1016.4 991.9 +18.0 4
15 17.08 штиль 0 50 км 10/8 1000 м
[Cb cap Ac trans Ci fib]
+14.4 +12.4 88 +14 +14 1017.0 992.3
18 17.08 штиль 0 50 км 10/3 1000 м
[Sc Ac trans Cs]
+11.3 +10.5 95 +11 +11 1018.7 993.6
21 17.08 С 1 50 км 10/3 1000 м
[Sc As op]
+11.5 +9.7 89 +11 +11 1019.2 994.1
00 18.08 З 1 50 км 10/5 1000 м
[Cb cap As trans]
+15.6 +10.5 72 +16 +17 1017.7 993.2 +10.4
03 18.08 СВ 1 50 км 10/4 1000 м
[Sc As trans]
+18.6 +9.3 55 +20 +23 1015.6 991.3
06 18.08 СВ 1 50 км 10/3 1000 м
[Sc As op]
+21.0 +9.4 47 +24 +25 комфорт 1013.8 989.6
09 18.08 ЮВ 4 10 км дым 10/4 1000 м
[Sc As trans]
+19.3 +6.8 44 +20 +20 1015.2 990.9
12 18.08 В 1 10 км дым 10/8 600 м
[Cb cap As op]
+15.6 +10.1 70 +16 +16 1016.6 992.0 +21.5
15 18.08 штиль 0 20 км слаб. ливневой дождь 10/10 600 м
[Cb cap]
+12.6 +9.2 80 +12 +12 1017.6 992.6
18 18.08 штиль 0 50 км {ливн. осадки} 9/9 1000 м
[Sc]
+12.4 +8.6 78 +12 +12 1016.8 992.0
21 18.08 СВ 1 50 км 10/4 1000 м
[Sc Ac trans Cs]
+13.0 +9.1 77 +13 +13 1017.0 992.2
00 19.08 штиль 0 50 км 10/4 1000 м
[Cb cap Ac trans Cs]
+14.8 +10.6 76 +15 +16 1017.6 992.8 +11.2 0.3
03 19.08 В 2 50 км 10/8 1000 м
[Cb cap As op]
+16.1 +10.5 69 +16 +16 1017.1 992.5
06 19.08 В 4 50 км 10/4 1000 м
[Cb cap As op]
+17.3 +8.3 55 +17 +17 1017.4 992.9
09 19.08 В 3 50 км 10/9 1000 м
[Cb cap As op]
+17.3 +8.6 57 +17 +17 1017.7 993.2

 

Местоположение метеостанции Сеген-Кюель (Якутия, Россия): широта 64.00 долгота 130.30 высота над уровнем моря 208 м.

В архиве по умолчанию представлена погода в Сеген-Кюеле за последнюю неделю. Архивные данные за месяц целиком и за предыдущие месяцы, начиная с января 2011 года, Вы можете получить, выбрав интересующий диапазон дат из раскрывающегося списка и нажав кнопку "Ввод!".


*Определитесь, кто Вы:
робот инопланетянин человек

Внимание! Время в таблицах - всемирное. Для получения местного времени необходимо прибавить поправку, которая равна 9 ч.

Смотрите также архив погоды в соседних городах и на ближайших метеорологических станциях:

Погода в Батамае (Якутия, Россия) (69 км)
Погода в Верхоянском Перевозе (Якутия, Россия) (113 км)
Погода в Сангаре (Якутия, Россия) (142 км)
Погода в Себян-Кюеле (Якутия, Россия) (145 км)
Погода в Намцах (Якутия, Россия) (147 км)
Погода в Сого-Хае (Якутия, Россия) (192 км)
Погода в Якутске (Якутия, Россия) (225 км)
Погода в Ытык-Кюёле (Якутия, Россия) (242 км)
Погода в Крест-Хальджае (Якутия, Россия) (243 км)
Погода в Чурапче (Якутия, Россия) (248 км)

Пояснения к столбцам:

Ветер - указаны скорость ветра в м/с - средняя за 10 мин, порывы в срок и между сроками (в фигурных скобках) и направление, откуда дует ветер: С - северный, СВ - северо-восточный, В - восточный, ЮВ - юго-восточный, Ю - южный, ЮЗ - юго-западный, З - западный, СЗ - северо-западный.
Видимость - горизонтальная дальность видимости в метрах или километрах. При видимости от 1 до 10 км при отсутствии осадков обычно наблюдается дымка, при ухудшении видимости до 1 км и менее - туман. В сухую погоду видимость может ухудшаться дымом, пылью или мглою.
Явления - указаны атмосферные явления, наблюдавшиеся в срок или в последний час перед сроком; фигурными скобками обозначены явления, наблюдавшиеся между сроками (за 1-3 часа до срока); квадратными скобками обозначены град или гололедные отложения с указанием их диаметра в мм.
Облачность - указаны через наклонную черту общая и нижняя облачность в баллах и высота нижней границы облаков в метрах; квадратными скобками обозначены формы облаков: Ci - перистые, Cs - перисто-слоистые, Cc - перисто-кучевые, Ac - высококучевые, As - высокослоистые, Sc - слоисто-кучевые, Ns - слоисто-дождевые, Cu - кучевые, Cb - кучево-дождевые. Подробнее классификацию облаков см. в Атласе облаков (PDF).
T - Температура воздуха - температура, измеренная на высоте 2 м над землей.
Td - Температура точки росы - температура, при понижении до которой содержащийся в воздухе водяной пар достигнет насыщения.
f - Относительная влажность воздуха - влажноcть воздуха, измеренная на высоте 2 м над землей.
Te - Эффективная температура - температура, которую ощущает одетый по сезону человек в тени. Характеристика душности погоды. При расчете учитывается влияние влажности воздуха и скорости ветра на теплоощущения человека.
Tes - Эффективная температура на солнце - температура, которую ощущает человек, с поправкой на солнечный нагрев. Характеристика знойности погоды. Зависит от высоты солнца над горизонтом, облачности и скорости ветра. Ночью, в пасмурную погоду, а также при ветре 12 м/с и более поправка равна нулю.
P - Атмосферное давление - приведенное к уровню моря атмосферное давление.
Po - Атмосферное давление - измеренное на уровне метеостанции атмосферное давление.
Tmin - Минимальная температура - минимум температуры воздуха на высоте 2 м над землей.
Tmax - Максимальная температура - максимум температуры воздуха на высоте 2 м над землей.
R - Количество осадков - Количество выпавших осадков за период времени, мм. При наведении курсора мыши на число - период времени, за который выпало указанное количество осадков.
R24 - Количество осадков - Количество выпавших осадков за 24 часа, мм.
S - Снежный покров - Высота снежного покрова, см. При наведении курсора мыши на число - состояние снежного покрова и степень покрытия местности в баллах.